Weather History for KBIX - October, 2011

Change the Weather History Date:

Monday, October 3, 2011

  Actual Average Record
Temperature  
Mean Temperature 64 °F -  
Max Temperature 76 °F 83 °F 91 °F (1999)
Min Temperature 52 °F 62 °F 48 °F (1974)
Degree Days  
Heating Degree Days 2    
Growing Degree Days 14 (Base 50)    
Moisture  
Dew Point 47 °F    
Average Humidity 58    
Maximum Humidity 82    
Minimum Humidity 27    
Precipitation  
Precipitation 0.00 in - - ()
Sea Level Pressure  
Sea Level Pressure 30.20 in    
Wind  
Wind Speed 5 mph (NE)    
Max Wind Speed 9 mph    
Max Gust Speed -    
Visibility 10 miles    
Events      
Averages and records for this station are not official NWS values.
T = Trace of Precipitation, MM = Missing Value Source: NWS Daily Summary

Daily Weather History Graph

Daily Weather History Graph

Search for Another Location

Airport or City:

Trip Planner

Search our weather history database for the weather conditions in past years. The results will help you decide how hot, cold, wet, or windy it might be!

Date:

Astronomy

Oct. 03, 2011 Rise Set
Actual Time 6:50 AM CDT 6:38 PM CDT
Civil Twilight 6:26 AM CDT 7:02 PM CDT
Nautical Twilight 5:58 AM CDT 7:30 PM CDT
Astronomical Twilight 5:30 AM CDT 7:58 PM CDT
Moon 1:26 PM CDT (10/3) No Moon Set
Length of Visible Light 12h 36m
Length of Day
11h 48m
Waxing Crescent, 45% of the Moon is Illuminated
Oct 3
Waxing Crescent
Oct 3
First Quarter
Oct 11
Full
Oct 19
Last Quarter
Oct 26
New

Hourly Weather History & Observations

Time (CDT) Temp. Dew Point Humidity Pressure Visibility Wind Dir Wind Speed Gust Speed Precip Events Conditions
12:55 AM 58.1 °F 48.7 °F 71% 30.16 in 10.0 mi North 5.8 mph - N/A   Clear
1:55 AM 56.7 °F 48.4 °F 74% 30.16 in 10.0 mi North 4.6 mph - N/A   Clear
2:55 AM 55.2 °F 48.0 °F 77% 30.15 in 10.0 mi North 5.8 mph - N/A   Clear
3:55 AM 54.1 °F 48.6 °F 81% 30.16 in 10.0 mi NNE 4.6 mph - N/A   Clear
4:55 AM 52.5 °F 46.9 °F 81% 30.18 in 10.0 mi NNE 4.6 mph - N/A   Clear
5:55 AM 52.9 °F 47.5 °F 82% 30.19 in 10.0 mi NNE 5.8 mph - N/A   Clear
6:55 AM 52.5 °F 46.0 °F 79% 30.21 in 10.0 mi NNE 6.9 mph - N/A   Clear
7:55 AM 55.4 °F 46.4 °F 72% 30.22 in 10.0 mi NE 6.9 mph - N/A   Clear
8:55 AM 60.3 °F 46.8 °F 61% 30.24 in 10.0 mi NE 8.1 mph - N/A   Clear
9:55 AM 66.9 °F 43.3 °F 42% 30.25 in 10.0 mi ENE 8.1 mph - N/A   Clear
10:55 AM 69.6 °F 41.4 °F 36% 30.25 in 10.0 mi East 6.9 mph - N/A   Clear
11:55 AM 71.6 °F 38.8 °F 30% 30.25 in 10.0 mi ENE 6.9 mph - N/A   Clear
12:55 PM 73.6 °F 37.2 °F 27% 30.23 in 10.0 mi NE 9.2 mph - N/A   Clear
1:55 PM 75.2 °F 39.6 °F 28% 30.19 in 10.0 mi ENE 6.9 mph - N/A   Clear
2:55 PM 75.9 °F 43.5 °F 31% 30.18 in 10.0 mi SW 5.8 mph - N/A   Clear
3:55 PM 73.9 °F 47.3 °F 39% 30.17 in 10.0 mi SSW 6.9 mph - N/A   Clear
4:55 PM 72.9 °F 47.1 °F 40% 30.17 in 10.0 mi SSW 5.8 mph - N/A   Clear
5:55 PM 71.2 °F 48.2 °F 44% 30.17 in 10.0 mi SW 5.8 mph - N/A   Clear
6:55 PM 67.6 °F 48.2 °F 50% 30.17 in 10.0 mi Calm Calm - N/A   Clear
7:55 PM 65.8 °F 53.8 °F 65% 30.18 in 10.0 mi Calm Calm - N/A   Clear
8:55 PM 64.8 °F 57.9 °F 78% 30.20 in 10.0 mi Calm Calm - N/A   Clear
9:55 PM 64.2 °F 54.3 °F 70% 30.21 in 10.0 mi Calm Calm - N/A   Clear
10:55 PM 62.4 °F 54.0 °F 74% 30.21 in 10.0 mi Calm Calm - N/A   Clear
11:55 PM 61.9 °F 50.0 °F 65% 30.20 in 10.0 mi Calm Calm - N/A   Clear